This is the latest recevied weather packets stored in our database for station/object KX4O-13. If no packets are shown the sender has not sent any weather packets the latest 1 day(s).
| Time | Temp. | Humidity | Pressure | Rain* | Wind** | Luminosity | Snow |
|---|---|---|---|---|---|---|---|
| 1778019952 | 26.11° C | 25% | 1009.4 hPa | 0 mm | 4.02 m/s, 169° | 225 W/m² | - |
| 1778019652 | 26.67° C | 26% | 1009.1 hPa | 0 mm | 4.02 m/s, 198° | 100 W/m² | - |
| 1778019352 | 26.67° C | 26% | 1009.2 hPa | 0 mm | 4.02 m/s, 179° | 373 W/m² | - |
| 1778019054 | 26.67° C | 27% | 1009 hPa | 0 mm | 3.58 m/s, 202° | 399 W/m² | - |
| 1778018752 | 26.11° C | 31% | 1008.9 hPa | 0 mm | 2.68 m/s, 188° | 171 W/m² | - |
| 1778018452 | 26.11° C | 29% | 1009.1 hPa | 0 mm | 2.68 m/s, 176° | 211 W/m² | - |
| 1778018152 | 26.11° C | 29% | 1009.2 hPa | 0 mm | 3.13 m/s, 234° | 487 W/m² | - |
| 1778017852 | 26.67° C | 29% | 1009 hPa | 0 mm | 3.58 m/s, 188° | 229 W/m² | - |
| 1778017552 | 26.11° C | 29% | 1009.1 hPa | 0 mm | 3.58 m/s, 238° | 237 W/m² | - |
| 1778017252 | 26.11° C | 29% | 1009.1 hPa | 0 mm | 3.58 m/s, 209° | 320 W/m² | - |
| 1778016952 | 26.11° C | 29% | 1009 hPa | 0 mm | 3.58 m/s, 229° | 199 W/m² | - |
| 1778016654 | 26.11° C | 30% | 1009 hPa | 0 mm | 3.13 m/s, 182° | 223 W/m² | - |
| 1778016352 | 26.11° C | 30% | 1008.9 hPa | 0 mm | 3.13 m/s, 175° | 172 W/m² | - |
| 1778016052 | 26.67° C | 29% | 1009 hPa | 0 mm | 2.68 m/s, 226° | 167 W/m² | - |
| 1778015752 | 27.22° C | 30% | 1008.9 hPa | 0 mm | 2.68 m/s, 230° | 188 W/m² | - |
| 1778015452 | 26.67° C | 29% | 1008.9 hPa | 0 mm | 3.13 m/s, 192° | 316 W/m² | - |
| 1778015152 | 27.22° C | 28% | 1008.9 hPa | 0 mm | 4.02 m/s, 227° | 241 W/m² | - |
| 1778014852 | 27.78° C | 27% | 1008.9 hPa | 0 mm | 4.02 m/s, 227° | 587 W/m² | - |
| 1778014552 | 27.22° C | 28% | 1009 hPa | 0 mm | 3.58 m/s, 270° | 383 W/m² | - |
| 1778014254 | 26.67° C | 28% | 1008.8 hPa | 0 mm | 3.58 m/s, 236° | 283 W/m² | - |
| 1778013952 | 27.22° C | 29% | 1008.9 hPa | 0 mm | 3.58 m/s, 190° | 343 W/m² | - |
| 1778013652 | 27.22° C | 29% | 1008.9 hPa | 0 mm | 4.02 m/s, 196° | 510 W/m² | - |
| 1778013352 | 27.22° C | 28% | 1008.9 hPa | 0 mm | 4.47 m/s, 184° | 308 W/m² | - |
| 1778013052 | 27.22° C | 28% | 1009 hPa | 0 mm | 4.02 m/s, 186° | 311 W/m² | - |
| 1778012752 | 27.22° C | 29% | 1009 hPa | 0 mm | 3.58 m/s, 178° | 497 W/m² | - |
* Rain latest hour (hover to see other rain measurements)
** Current wind speed in m/s (hover to see current wind gust speed)